Lagoon City, Ontario

Past 24 Hour Conditions

This table is a summary of hourly weather conditions for the past 24 hours. This summary includes the following parameters: temperature, humidity, dew point, wind speed and direction, air pressure, visibility and/or wind chill and humidex.
Date / Time
(EDT)
Conditions Temp (°F) Humidity (%) Dew Point (°F) Wind (mph) Pressure (inches) Visibility (miles)
24 April 2014
1:00 N/A 33   74 25 NW 8 30.1 N/A
00:00 N/A 34 69 25 NW 8 30.1 N/A
23 April 2014
23:00 N/A 35 62 24 NW 12 gust 17 30.1 N/A
22:00 N/A 36 61 24 NW 13 gust 22 30.0 N/A
21:00 N/A 37 56 23 NW 15 gust 23 30.0 N/A
20:00 N/A 38 50 21 NW 22 30.0 N/A
19:00 N/A 40 45 21 NW 19 gust 25 30.0 N/A
18:00 N/A 39 47 21 WNW 20 gust 28 29.9 N/A
17:00 N/A 40 39 17 WNW 27 29.9 N/A
16:00 N/A 39 52 23 WNW 20 gust 27 29.9 N/A
15:00 N/A 41   54 25 WNW 20 gust 25 29.9 N/A
14:00 N/A 41   49 23 NW 15 gust 24 29.9 N/A
13:00 N/A 38 61 26 NW 18 gust 25 29.9 N/A
12:00 N/A 36 70 27 NW 19 29.9 N/A
11:00 N/A 35 74 28 NNW 17 29.9 N/A
10:00 N/A 35 80 29 NNW 15 gust 22 29.9 N/A
9:00 N/A 34 87 31 NNW 13 gust 24 29.9 N/A
8:00 N/A 34 89 32 NNW 15 29.9 N/A
7:00 N/A 34 94 32 NNW 13 29.9 N/A
6:00 N/A 33   96 32 NNW 11 29.8 N/A
5:00 N/A 34 95 33 NW 14 29.8 N/A
4:00 N/A 35 93 33 NNW 13 gust 20 29.7 N/A
3:00 N/A 36 92 34 NNW 10 29.7 N/A
2:00 N/A 37 94 35 NNW 13 29.7 N/A
1:00 N/A 37 93 35 NW 12 29.7 N/A
N/A
Not available
 ↑ 
Highest temperature
 ↓ 
Lowest temperature

If you require additional historical weather information, please visit Climate Data Online.